User: anonymous   Login
Location: Bothwell
(42.3833°S, 147.0000°E)
Time: 03:30:33
(UTC+10:00)
Language:

XW-2C - Orbit

View from above orbital plane
View from above orbital plane
View from above satellite
View from above satellite

Ground track
Ground track

The orbit data is extracted from the following two-line orbital elements,

1 40906U 15049H   24205.48485717  .00039810  00000-0  83893-3 0  9990
2 40906  97.4756 223.2999 0009464 157.7275 202.4386 15.45101604490074
Epoch (UTC): 23 July 2024 11:38:11
Eccentricity: 0.0009464
inclination: 97.4756°
perigee height: 424 km
apogee height: 437 km
right ascension of ascending node: 223.2999°
argument of perigee: 157.7275°
revolutions per day: 15.45101604
mean anomaly at epoch: 202.4386°
orbit number at epoch: 49007

The dashed part of the orbit path shows where the satellite is in the earth's shadow,  

DLR